User: anonymous   Login
Location: Pian di Sc�
(43.6333°N, 11.5500°E)
Time: 07:10:38
(UTC+00:00)
Language:

Cosmos 1777 Rocket - Orbit

View from above orbital plane
View from above orbital plane
View from above satellite
View from above satellite

Ground track
Ground track

The orbit data is extracted from the following two-line orbital elements,

1 16953U 86070B   20299.92421154 +.00000012 +00000-0 +12924-4 0  9990
2 16953 074.0122 175.8922 0011195 105.7405 254.4984 14.37395758788095
Epoch (UTC): 25 October 2020 22:10:51
Eccentricity: 0.0011195
inclination: 74.0122°
perigee height: 759 km
apogee height: 775 km
right ascension of ascending node: 175.8922°
argument of perigee: 105.7405°
revolutions per day: 14.37395758
mean anomaly at epoch: 254.4984°
orbit number at epoch: 78809

The dashed part of the orbit path shows where the satellite is in the earth's shadow,  

DLR